Über Orbcomm B5
Group: 3 satellites
Beschreibung wird geladen...
Live-Position
3D-Globus wird geladen...
Nächste Überflüge
Höhenverlauf
Altitude vs Time
uPlot chart will show altitude changes over time
Zweizeiliger Elementsatz
1 25413U 98046A 25278.24304336 .00001463 00000-0 55479-3 0 9998
2 25413 44.9923 98.1202 0002865 59.0750 301.0378 14.35318699418988
Epoch: 5. Okt. 2025 •
Age: 25 hours
Aktueller Status
Höhe 775.7 km
Geschwindigkeit 7.47 km/s
Subsatellitenpunkt 44.21°N,
44.44°E
Startdatum 2. Aug. 1998
Alter 27.1 years
Typ other
Technische Details
Klassifizierung Payload
Masse 42.00 kg
Trockenmasse 42.00 kg
Gesamtmasse 42.00 kg
Länge 0.20 m
Durchmesser 1.00 m
Spannweite 4.30 m
Form Cyl + 2 Pan + Ant
Hersteller OSCG
Bus-Typ Microstar
Phasenstatus Unknown Transfer Status
Besitzer/Staat ORBC/US
Große Konstellationen
Loading constellations...